{"data":{"norad_id":67697,"intl_designator":"2026-025E","name":"STARLINK-36704","alt_names":[],"object_type":"PAYLOAD","status":"ACTIVE","operator":null,"country":"US","launch_date":"2026-02-07","launch_site_code":"AFWTR","launch_vehicle":null,"mission":null,"orbit_class":"UNKNOWN","rcs_meters":null,"size_class":null,"mass_kg":null,"dimensions":null,"purposes":["comms"],"wikipedia_slug":null,"has_3d_model":false,"image_url":null,"decayed_at":null,"tle_current":{"epoch":"2026-09-19T05:46:14.558592Z","epoch_age_seconds":178175,"freshness":"STALE","line1":"1 67697U 26025E   26262.24044628  .00023154  00000+0  71697-3 0  9995","line2":"2 67697  97.2856  12.1722 0001379  93.1341 267.0059 15.33460272 35673","mean_motion":15.33460272,"eccentricity":0.0001379,"inclination_deg":97.2856,"raan_deg":12.1722,"arg_perigee_deg":93.1341,"mean_anomaly_deg":267.0059,"bstar":0.00071697,"rev_number":3567,"period_min":93.90526942846,"perigee_km":464.5539988979,"apogee_km":466.44147335812,"semimajor_km":6843.634736128,"source":"CELESTRAK","updated_at":"2026-09-20T09:00:43.627654Z"}}}